Flag for Switzerland Weather past 2 weeks in Schwyz, Schwyz, Switzerland

Now
64 °F

Mild.


Feels Like: 64 °F
Forecast: 48 / 71 °F
Wind: 1 mph from Northwest

Location: Altdorf

Current Time: Sep 2, 2014 at 6:53:46 PM

Latest Report: Sep 2, 2014 at 6:00 PM


Visibility: N/A

Pressure: 30.06 "Hg

Humidity: 62%

Dew point: 50 °F

Location of SchwyzLocation

Historic Weather in Schwyz — Graph

°F

Schwyz temperature yesterday

Maximum temperature yesterday: 59 °F (at 6:00 PM)
Minimum temperature yesterday: 49 °F (at 5:00 AM)
Average temperature yesterday: 54 °F

Past Weeks' High & Low Weather Summary

 TemperatureHumidityPressure
High74 °F (Aug 28, 4:00 PM)99% (Aug 27, 12:00 AM)30.22 "Hg (Aug 27, 12:00 AM)
Low44 °F (Sep 2, 7:00 AM)47% (Aug 24, 3:00 PM)29.79 "Hg (Aug 26, 7:00 AM)
Average60 °F81%30.02 "Hg
* Reported Aug 18 5:00 PM — Sep 2 5:00 PM, Schwyz, Weather by CustomWeather, © 2014

Note: Actual official high and low records may vary slightly from our data, if they occured in-between our weather recording intervals... More about our weather records

Advertising

Schwyz weather history for previous 24 hours

 ConditionsComfort  
Time TempWeatherWind HumidityBarometerVisibility
5:00 PM
Sep 2
64 °FOvercast.3 mph60%30.06 "Hg9 mi
4:00 PM64 °FMild.5 mph55%30.07 "HgN/A
3:00 PM62 °FMild.3 mph65%30.09 "HgN/A
2:00 PM61 °FPartly sunny.3 mph71%30.10 "Hg9 mi
1:00 PM60 °FCool.5 mph70%30.10 "HgN/A
12:00 PM59 °FCool.5 mph74%30.11 "HgN/A
11:00 AM57 °FScattered clouds.5 mph72%30.12 "Hg11 mi
10:00 AM55 °FCool.1 mph81%30.14 "HgN/A
9:00 AM51 °FCool.2 mph90%30.16 "HgN/A
8:00 AM47 °FScattered clouds.2 mph94%30.18 "Hg11 mi
7:00 AM44 °FQuite cool.3 mph97%30.19 "HgN/A
6:00 AM47 °FCool.3 mph94%30.16 "HgN/A
5:00 AM46 °FPassing clouds.2 mph96%30.17 "Hg9 mi
4:00 AM46 °FCool.No wind98%30.17 "HgN/A
3:00 AM48 °FCool.2 mph95%30.16 "HgN/A
2:00 AM49 °FOvercast.No wind96%30.17 "Hg11 mi
1:00 AM51 °FCool.No wind96%30.17 "HgN/A
12:00 AM51 °FCool.1 mph95%30.17 "HgN/A
11:00 PM
Sep 1
52 °FOvercast.1 mph94%30.18 "Hg11 mi
10:00 PM53 °FCool.2 mph93%30.18 "HgN/A
9:00 PM53 °FCool.2 mph95%30.18 "HgN/A
8:00 PM57 °FOvercast.1 mph88%30.15 "Hg9 mi
7:00 PM58 °FCool.1 mph84%30.14 "HgN/A
6:00 PM59 °FCool.1 mph75%30.14 "HgN/A
Weather by CustomWeather, © 2014

See weather overviewHow to use our weather pages